Vorticity
5 5 5 5 5 5 5 5 6 7 8 8 9 9 10 10 11 11 11 11 10 10 10 9 9 9 9 9 9 9 8 8 8 8 9 9 9 9 9 9 9 10 9 8 7 6 6 7 7 7 6 6
5 5 5 5 5 5 5 6 7 8 9 9 10 10 11 11 11 10 10 9 8 8 8 7 8 8 9 9 9 8 8 8 8 8 9 9 9 9 8 8 7 7 7 8 7 7 6 6 6 6 6 5
5 5 5 6 6 6 7 8 9 10 10 10 11 11 11 11 11 10 10 10 9 9 9 9 9 9 9 9 8 8 8 9 9 9 9 9 9 8 8 8 7 6 6 5 6 6 6 6 6 6 6 5
5 6 6 7 8 9 10 11 11 11 11 11 12 12 12 12 12 12 12 12 12 12 11 11 10 10 10 9 9 9 9 8 9 9 9 9 8 8 7 7 6 6 6 5 5 5 5 5 6 6 6 6
6 6 8 9 10 11 11 11 12 12 12 13 13 13 14 14 14 14 14 14 14 14 13 13 12 12 11 10 10 10 9 8 8 8 8 8 7 7 6 6 6 6 6 5 5 4 5 5 5 5 4 5
7 8 10 11 11 12 12 13 13 13 14 14 14 14 14 14 15 15 14 15 14 14 14 14 13 12 12 11 10 10 10 9 9 8 8 7 7 7 6 6 5 6 6 5 5 4 5 5 5 5 4 3
10 11 12 12 12 12 13 13 13 14 14 14 14 14 15 15 15 15 14 14 14 14 14 15 14 14 13 12 11 10 10 9 9 9 8 7 6 6 6 6 5 5 5 5 5 5 4 5 6 6 5 4
12 12 13 13 13 14 13 14 14 14 14 15 15 15 15 15 14 14 14 14 13 13 13 14 14 14 14 14 14 13 12 11 10 9 9 8 7 7 6 6 5 5 5 5 5 5 5 4 6 6 5 4
13 13 13 13 13 13 13 14 14 15 15 15 14 14 14 13 13 13 12 12 12 12 12 12 12 12 13 13 14 14 14 13 12 12 11 10 9 8 7 7 6 6 6 7 7 6 7 6 6 6 4 3
13 12 12 13 13 13 13 14 14 15 14 13 12 11 10 10 9 9 9 9 9 9 10 10 10 11 11 11 11 12 14 14 14 14 14 13 12 11 10 10 9 9 9 9 9 8 9 8 8 6 3 3
11 12 12 12 13 13 14 14 14 13 11 10 9 8 7 6 5 6 6 7 7 7 8 8 8 9 9 9 10 10 11 12 13 13 14 14 14 14 13 13 12 12 12 11 10 9 9 8 6 4 3 4
11 12 12 12 13 13 14 12 11 9 9 8 7 6 4 4 4 5 5 5 6 5 6 6 6 6 6 6 7 7 8 9 9 9 11 11 11 12 11 12 11 11 10 10 9 7 6 5 4 4 5 7
12 12 12 12 12 12 11 9 8 6 6 5 4 4 4 5 5 5 5 4 5 5 5 6 6 6 6 6 5 5 6 6 7 7 8 8 8 8 8 9 8 9 8 8 8 6 7 7 7 7 8 8
12 11 11 11 12 11 9 6 5 4 4 5 5 6 6 6 6 6 6 6 6 6 7 7 7 7 6 6 6 5 6 5 6 6 7 7 8 8 8 8 8 8 8 8 9 8 8 8 8 8 7 6
10 10 10 10 10 8 6 5 3 3 4 6 6 6 6 6 7 7 7 8 7 7 6 6 6 6 5 5 5 4 4 4 4 4 4 5 5 5 5 6 7 7 6 7 7 7 6 6 6 5 5 4
8 9 10 9 8 7 5 4 3 4 5 6 6 6 6 6 6 6 6 6 5 5 4 3 3 2 3 3 2 3 2 2 2 2 2 2 2 2 2 3 3 3 3 3 4 4 3 3 3 3 3 3
8 9 9 8 7 5 4 3 3 5 6 7 7 6 6 6 6 5 5 4 3 3 2 2 2 2 2 2 2 2 2 2 2 2 2 2 2 2 2 2 2 2 2 2 2 2 2 2 1 2 1 2
8 10 9 8 6 4 3 2 2 5 6 6 7 6 5 5 5 5 5 4 4 3 3 3 2 2 2 2 1 1 2 2 2 2 2 2 2 2 2 1 1 2 1 2 2 1 2 1 1 2 1 1
7 9 9 7 5 4 2 -1 0 2 2 4 6 7 7 6 6 6 6 5 5 4 4 4 3 3 2 2 2 1 2 2 2 2 2 3 3 3 3 3 2 2 2 2 2 2 2 2 2 2 2 2
6 9 10 8 5 4 0 -3 -2 -2 -2 -0 2 4 6 8 7 7 7 6 6 5 5 5 4 4 4 4 3 3 3 3 4 4 3 3 4 4 3 4 3 3 3 2 3 3 3 3 3 3 3 3
7 8 10 10 7 4 1 -2 -3 -3 -3 -2 -1 1 4 6 7 7 7 7 6 5 6 6 5 5 5 5 4 4 4 4 4 4 3 3 5 5 5 6 7 7 7 6 6 7 7 8 7 8 8 8
8 9 9 10 8 6 4 2 0 -0 -0 -1 -0 1 4 6 7 8 7 7 7 6 6 6 5 6 5 5 5 4 5 5 6 6 6 6 7 8 8 8 9 10 11 11 10 10 10 11 11 11 11 11
8 7 7 7 7 7 6 5 5 4 3 2 3 5 6 7 8 8 7 8 7 6 6 6 6 6 7 7 7 7 8 8 9 9 10 10 9 10 10 10 8 8 8 9 9 9 9 9 10 10 10 10
5 4 4 5 6 7 8 7 6 4 4 5 6 8 8 8 8 7 7 6 6 6 6 6 7 8 9 10 9 10 10 10 10 10 10 10 9 9 9 9 9 8 7 7 7 8 8 8 9 9 9 9
4 5 6 7 8 7 6 5 4 5 7 8 8 8 8 8 8 7 6 5 5 6 7 8 9 9 10 10 10 10 10 9 9 9 9 10 10 9 8 7 9 10 9 7 6 6 7 8 9 9 8 8
6 8 8 7 6 4 4 6 8 9 9 9 8 8 8 7 6 5 5 6 7 8 9 10 10 10 10 10 10 10 9 9 9 9 9 9 9 9 9 7 8 10 10 9 7 6 5 6 8 9 9 9
7 7 6 5 5 7 9 10 10 9 9 9 8 7 6 5 4 5 7 8 9 10 10 9 9 9 9 9 10 9 9 9 9 8 8 8 8 7 8 8 7 9 10 10 10 9 8 6 6 8 10 10
6 6 6 7 9 9 9 8 9 9 9 8 6 5 5 6 7 8 8 8 9 9 8 8 8 8 8 8 9 8 8 8 8 9 8 9 9 8 8 8 8 9 10 10 10 10 10 10 9 8 8 9
7 7 8 8 8 8 8 8 8 8 7 6 7 8 8 9 9 9 8 8 8 7 7 8 8 8 8 8 8 9 8 8 8 8 8 9 9 10 10 9 9 10 10 10 10 10 11 11 10 9 8 8
8 8 8 7 7 9 9 8 6 6 7 8 10 10 9 8 7 7 7 6 6 7 7 7 7 7 7 8 8 8 8 8 8 7 8 8 8 9 10 10 10 9 10 9 10 11 11 11 11 11 11 10
8 8 7 8 8 8 7 7 7 8 9 9 8 8 7 7 6 7 6 7 7 7 8 7 7 7 7 7 7 6 7 7 7 8 8 9 9 9 9 9 10 8 8 9 9 10 10 11 12 12 13 12
Height
5771 5769 5768 5766 5764 5762 5761 5759 5757 5756 5754 5753 5751 5750 5748 5747 5745 5744 5743 5742 5741 5741 5740 5740 5740 5739 5739 5739 5739 5738 5739 5739 5739 5739 5740 5741 5741 5742 5743 5744 5745 5747 5748 5750 5751 5753 5754 5755 5756 5757 5758 5759
5766 5764 5762 5760 5758 5756 5755 5753 5751 5749 5748 5746 5745 5743 5742 5740 5739 5738 5736 5735 5735 5734 5734 5733 5733 5733 5733 5733 5733 5732 5733 5733 5734 5734 5734 5735 5736 5736 5737 5737 5739 5740 5741 5743 5745 5746 5748 5749 5750 5752 5753 5754
5759 5758 5756 5754 5752 5750 5748 5746 5745 5743 5741 5740 5738 5737 5736 5734 5733 5731 5730 5729 5728 5728 5727 5727 5726 5726 5726 5726 5726 5726 5726 5727 5727 5728 5729 5729 5730 5731 5731 5732 5732 5734 5735 5736 5738 5740 5742 5743 5745 5746 5747 5748
5753 5751 5749 5747 5745 5743 5741 5740 5738 5736 5734 5733 5731 5730 5729 5728 5727 5725 5724 5723 5722 5722 5721 5721 5720 5720 5720 5720 5720 5720 5720 5721 5721 5722 5723 5723 5724 5725 5726 5726 5727 5728 5729 5730 5731 5733 5735 5737 5738 5740 5741 5742
5747 5745 5743 5741 5738 5736 5734 5733 5731 5729 5728 5726 5725 5724 5723 5721 5720 5719 5718 5717 5716 5715 5715 5715 5714 5714 5714 5714 5714 5714 5714 5714 5715 5716 5717 5718 5718 5719 5720 5721 5721 5722 5723 5724 5725 5726 5727 5729 5731 5733 5735 5736
5741 5739 5737 5734 5732 5730 5728 5726 5724 5723 5721 5719 5718 5717 5716 5715 5714 5713 5712 5711 5710 5709 5709 5708 5708 5708 5708 5708 5708 5708 5708 5708 5709 5710 5710 5711 5712 5713 5714 5715 5716 5716 5717 5718 5719 5720 5721 5722 5724 5726 5728 5729
5735 5733 5731 5729 5726 5724 5722 5720 5718 5717 5715 5713 5712 5711 5710 5709 5708 5707 5706 5705 5704 5704 5703 5702 5702 5702 5702 5702 5702 5702 5702 5703 5703 5704 5704 5705 5706 5707 5708 5709 5710 5711 5711 5712 5713 5714 5715 5716 5717 5719 5721 5722
5730 5727 5725 5723 5721 5719 5717 5715 5713 5711 5710 5708 5707 5705 5705 5704 5703 5702 5701 5700 5699 5699 5698 5697 5697 5696 5696 5696 5697 5697 5697 5697 5697 5698 5698 5699 5700 5701 5702 5703 5704 5705 5705 5706 5707 5708 5709 5710 5711 5712 5714 5715
5724 5722 5719 5717 5715 5713 5711 5710 5708 5706 5705 5703 5702 5701 5700 5699 5698 5697 5696 5695 5695 5694 5693 5693 5692 5691 5691 5691 5691 5691 5691 5692 5692 5692 5693 5693 5694 5695 5696 5697 5697 5698 5699 5699 5700 5701 5702 5703 5704 5706 5707 5708
5718 5716 5713 5712 5710 5708 5706 5705 5703 5702 5700 5699 5698 5697 5696 5695 5694 5693 5692 5691 5690 5690 5689 5688 5688 5687 5686 5686 5686 5686 5687 5687 5687 5687 5687 5688 5688 5689 5690 5690 5691 5692 5692 5693 5694 5694 5695 5696 5698 5699 5700 5702
5712 5710 5708 5706 5705 5703 5701 5700 5698 5697 5696 5695 5694 5693 5692 5691 5690 5689 5688 5687 5686 5686 5685 5684 5683 5683 5682 5681 5681 5682 5682 5682 5682 5682 5682 5682 5683 5683 5684 5684 5685 5686 5686 5687 5688 5688 5689 5690 5691 5692 5693 5694
5706 5704 5702 5701 5699 5698 5697 5695 5694 5693 5692 5691 5690 5689 5688 5687 5686 5684 5683 5682 5681 5681 5680 5680 5679 5678 5678 5677 5676 5677 5677 5677 5677 5677 5677 5677 5677 5678 5678 5679 5679 5680 5680 5681 5682 5682 5683 5683 5684 5685 5686 5687
5701 5699 5697 5695 5694 5693 5692 5691 5690 5689 5687 5686 5685 5684 5683 5682 5681 5680 5679 5678 5677 5676 5675 5675 5674 5673 5673 5672 5671 5671 5671 5671 5671 5671 5671 5672 5672 5672 5672 5673 5673 5674 5674 5675 5675 5676 5677 5677 5677 5678 5679 5679
5696 5694 5692 5690 5689 5688 5687 5686 5685 5683 5682 5681 5680 5679 5678 5677 5676 5675 5674 5673 5672 5671 5670 5670 5669 5668 5668 5667 5666 5666 5666 5665 5665 5665 5665 5665 5665 5665 5666 5666 5667 5667 5668 5668 5669 5670 5670 5670 5671 5671 5672 5672
5691 5688 5687 5685 5684 5683 5681 5680 5679 5678 5677 5675 5674 5673 5672 5672 5671 5670 5669 5667 5666 5666 5665 5664 5663 5663 5662 5661 5661 5661 5660 5659 5659 5659 5658 5658 5658 5659 5659 5659 5659 5660 5661 5661 5661 5662 5663 5663 5664 5664 5665 5665
5685 5683 5681 5679 5678 5677 5676 5675 5674 5673 5671 5670 5669 5667 5667 5666 5665 5664 5663 5662 5661 5660 5659 5659 5658 5657 5656 5656 5655 5655 5654 5653 5653 5652 5652 5651 5651 5651 5652 5652 5652 5652 5653 5653 5653 5654 5655 5656 5656 5656 5657 5657
5679 5677 5675 5674 5673 5672 5671 5670 5669 5667 5666 5664 5663 5662 5661 5660 5659 5658 5657 5656 5655 5654 5653 5652 5651 5651 5650 5649 5649 5648 5648 5647 5646 5646 5645 5644 5644 5644 5644 5644 5644 5644 5644 5644 5645 5645 5646 5647 5647 5648 5649 5648
5673 5671 5670 5668 5667 5666 5665 5664 5663 5661 5660 5659 5657 5656 5655 5653 5652 5651 5650 5649 5648 5647 5646 5645 5644 5643 5642 5642 5642 5641 5641 5640 5640 5639 5638 5637 5637 5636 5636 5636 5636 5636 5636 5635 5636 5636 5637 5637 5637 5638 5639 5639
5667 5665 5664 5663 5662 5660 5659 5658 5657 5655 5654 5652 5651 5649 5648 5647 5646 5644 5643 5642 5641 5640 5638 5637 5636 5635 5634 5633 5633 5633 5632 5632 5631 5631 5630 5629 5628 5628 5627 5627 5627 5627 5627 5627 5627 5627 5627 5627 5627 5628 5628 5628
5661 5660 5658 5657 5656 5655 5653 5652 5650 5649 5647 5646 5644 5643 5641 5640 5639 5637 5636 5634 5633 5632 5630 5629 5628 5627 5625 5625 5624 5624 5623 5622 5622 5621 5622 5621 5619 5619 5618 5618 5617 5617 5616 5617 5617 5617 5617 5617 5617 5618 5617 5618
5655 5654 5652 5651 5650 5648 5646 5645 5643 5642 5640 5638 5637 5635 5634 5632 5631 5629 5628 5626 5625 5624 5622 5621 5619 5618 5616 5615 5615 5614 5613 5612 5611 5611 5611 5611 5609 5609 5609 5608 5608 5607 5606 5606 5607 5607 5607 5606 5606 5607 5607 5607
5648 5647 5646 5644 5643 5641 5639 5637 5636 5634 5632 5631 5629 5628 5626 5624 5623 5621 5620 5618 5617 5615 5614 5612 5610 5609 5607 5606 5605 5604 5603 5602 5601 5600 5600 5600 5599 5598 5599 5598 5597 5596 5596 5596 5596 5596 5596 5595 5596 5596 5595 5596
5642 5640 5638 5637 5635 5633 5632 5630 5628 5626 5625 5623 5621 5619 5617 5616 5614 5613 5611 5609 5608 5606 5605 5603 5601 5600 5598 5596 5595 5594 5593 5591 5590 5589 5589 5589 5588 5587 5587 5587 5586 5586 5585 5586 5586 5586 5585 5585 5585 5584 5584 5585
5634 5633 5631 5630 5628 5626 5624 5621 5620 5618 5616 5615 5613 5611 5609 5607 5605 5604 5602 5600 5599 5597 5596 5594 5592 5590 5588 5587 5586 5584 5583 5581 5580 5578 5577 5577 5577 5577 5576 5575 5575 5574 5574 5575 5575 5575 5575 5574 5574 5573 5573 5573
5628 5626 5624 5623 5621 5619 5617 5614 5612 5610 5608 5606 5604 5602 5600 5599 5597 5595 5593 5591 5590 5588 5586 5584 5582 5580 5578 5577 5575 5574 5573 5571 5569 5568 5566 5566 5565 5565 5565 5564 5562 5561 5561 5563 5563 5563 5564 5564 5562 5560 5561 5562
5622 5620 5617 5616 5614 5611 5610 5607 5605 5603 5600 5598 5596 5594 5592 5590 5588 5586 5584 5582 5580 5578 5576 5574 5573 5571 5569 5567 5565 5564 5562 5560 5559 5557 5555 5554 5554 5553 5553 5553 5550 5548 5548 5550 5550 5550 5552 5553 5550 5549 5549 5548
5615 5613 5610 5608 5605 5603 5602 5600 5597 5595 5592 5590 5588 5586 5583 5581 5579 5577 5575 5573 5570 5569 5567 5565 5563 5561 5559 5556 5554 5553 5552 5549 5548 5546 5544 5542 5542 5541 5541 5541 5538 5535 5535 5536 5536 5535 5538 5539 5538 5539 5537 5534
5608 5605 5602 5600 5597 5595 5593 5591 5589 5586 5583 5581 5578 5576 5574 5571 5569 5567 5565 5563 5561 5559 5557 5555 5553 5551 5549 5546 5544 5543 5541 5539 5537 5535 5533 5531 5530 5529 5529 5528 5526 5524 5523 5522 5521 5521 5524 5524 5523 5526 5525 5521
5600 5598 5595 5592 5589 5586 5584 5582 5579 5576 5574 5571 5568 5566 5563 5561 5558 5556 5555 5553 5551 5549 5546 5544 5542 5540 5538 5536 5534 5532 5530 5528 5526 5524 5522 5520 5519 5517 5516 5516 5515 5513 5510 5508 5507 5507 5509 5508 5508 5511 5510 5509
5592 5589 5587 5584 5581 5578 5575 5573 5570 5567 5564 5561 5558 5555 5553 5550 5547 5545 5544 5542 5539 5537 5535 5534 5532 5530 5528 5526 5523 5521 5519 5517 5514 5512 5510 5508 5507 5506 5504 5503 5504 5503 5498 5496 5496 5494 5493 5494 5494 5496 5495 5494
5582 5580 5577 5574 5572 5569 5566 5563 5561 5558 5554 5551 5548 5545 5543 5540 5537 5534 5532 5530 5528 5525 5524 5522 5520 5519 5517 5515 5513 5510 5509 5506 5503 5501 5499 5497 5495 5494 5492 5490 5491 5491 5487 5485 5485 5481 5479 5480 5480 5480 5481 5480